Terminal Aerodrome Forecast
Issued by NWS

Home | Current Version | Previous Version | Text Only | Print | Product List | Glossary On
Versions: 1 2 3 4 5 6 7 8 9 10 11 12 13 14 15 16 17 18 19 20 21 22
000
FTUS42 KFFC 232325
TAFPDK
TAF
KPDK 232325Z 2400/2424 13005KT P6SM SKC
     FM241200 11006KT P6SM SCT020
     FM241600 10008KT P6SM SCT035
     FM241900 11010G16KT P6SM SCT050=

USA.gov is the U.S. government's official web portal to all federal, state and local government web resources and services.